{"data":{"norad_id":62773,"epoch":"2026-09-21T21:13:37.217856Z","epoch_age_seconds":51630,"freshness":"FRESH","line1":"1 62773U 25015R   26264.88445854  .00016566  00000+0  50029-3 0  9996","line2":"2 62773  53.1596 127.2971 0001483  51.8754 308.2382 15.34402802 94571","mean_motion":15.34402802,"eccentricity":0.0001483,"inclination_deg":53.1596,"raan_deg":127.2971,"arg_perigee_deg":51.8754,"mean_anomaly_deg":308.2382,"bstar":0.00050029,"rev_number":9457,"period_min":93.84758670429,"perigee_km":461.68041671272,"apogee_km":463.70940745785,"semimajor_km":6840.8319120853,"source":"CELESTRAK","updated_at":"2026-09-22T09:00:49.663487Z"}}